Tracking 28309 objects as of 1-Dec-2023
HD Live streaming from Space Station
objects crossing your sky now

DELTA 1 DEB

Track DELTA 1 DEB now!
10-day predictions


NORAD ID: 42632
Int'l Code: 1975-052LR
Perigee: 1,081.0 km
Apogee: 1,699.9 km
Inclination: 99.5 °
Period: 113.4 minutes
Semi major axis: 7761 km
RCS: Unknown
Launch date: June 12, 1975
Source: United States (US)
Launch site: AIR FORCE WESTERN TEST RANGE (AFWTR)

Note: This is SATELLITE DEBRIS
Your satellite tracking list
Your tracking list is empty




NASA's NSSDC Master Catalog

Two Line Element Set (TLE):
1 42632U 75052LR  23334.00128800  .00000243  00000-0  10302-2 0  9997
2 42632  99.5438 175.4213 0398658 249.6585 106.1253 12.69666605422258
Source of the keplerian elements: AFSPC